[[{"header":{"parameterUnit":"m.s-1","parameterCategory":1,"la1":30.2992,"la2":30.254,"lo1":-89.0895,"lo2":-89.0443,"dy":0.0025,"dx":0.0025,"nx":19,"ny":19,"refTime":"2026-05-02T03:00:00:Z","depth":0,"parameterNumber":2,"parameterNumberName":"U-component_of_WINDS"},"data":[0,0,0,-3.6817,-3.6812,-3.654,-3.6539,-3.6277,-3.6275,0,0,0,0,0,0,0,0,0,0,0,-3.6948,-3.6948,-3.6817,-3.6812,-3.6541,-3.6539,-3.6277,-3.6275,0,0,0,0,0,0,0,0,0,0,0,-3.6948,-3.6948,-3.6948,-3.6811,-3.6541,-3.6539,-3.6278,-3.6452,0,0,0,0,0,0,0,0,0,0,-3.6701,-3.6872,-3.6948,-3.6948,-3.681,-3.6541,-3.6538,-3.6459,-3.6442,-3.6436,0,-3.6445,0,-3.6357,-3.6263,-3.6263,0,0,0,-3.6774,-3.6888,-3.6768,-3.6948,-3.6808,-3.6542,-3.6652,-3.6448,-3.6428,-3.6414,-3.644,-3.6428,-3.6352,-3.6262,-3.6261,-3.6358,-3.636,0,0,-3.6789,-3.6927,-3.6783,-3.6758,-3.6804,-3.6661,-3.6644,-3.6435,-3.6474,-3.6439,-3.6421,-3.6348,-3.6261,-3.626,-3.6356,-3.6358,0,0,0,-3.6857,-3.6939,-3.6822,-3.6771,-3.6716,-3.6654,-3.6635,-3.6483,-3.6433,-3.6417,-3.6345,-3.626,-3.6258,-3.6353,-3.6357,-3.6602,0,0,0,-3.6865,-3.6978,-3.6831,-3.6913,-3.6721,-3.6596,-3.6689,-3.6448,-3.642,-3.6346,-3.626,-3.6256,-3.635,-3.6355,-3.6589,-3.6695,0,0,0,-3.6948,-3.6987,-3.6966,-3.6921,-3.6809,-3.6596,-3.6533,-3.6438,-3.6378,-3.6263,-3.6256,-3.6348,-3.6354,-3.6578,-3.6676,-3.6762,0,0,0,-3.7078,-3.7187,-3.6972,-3.7066,-3.6813,-3.6749,-3.6532,-3.6478,-3.6409,-3.6259,-3.6351,-3.6356,-3.6575,-3.6665,-3.6751,-3.6859,-3.6917,0,0,-3.7293,-3.7218,-3.7262,-3.7062,-3.7073,-3.678,-3.6825,-3.663,-3.6493,-3.6411,-3.6411,-3.6593,-3.6675,-3.6759,-3.719,-3.7238,0,0,0,-3.7377,-3.7412,-3.7384,-3.7324,-3.7178,-3.7062,-3.6846,-3.6774,-3.6697,-3.6479,-3.6642,-3.6686,-3.673,-3.6776,-3.6816,-3.6845,-3.6383,-3.6382,-3.6382,-3.7881,-3.7699,-3.7761,-3.7548,-3.7493,-3.7269,-3.7208,-3.7072,-3.6905,-3.6947,-3.6922,-3.7206,-3.7265,-3.7293,-3.7327,-3.6963,-3.6964,-3.6965,-3.6966,-3.818,-3.82,-3.7975,-3.7955,-3.7764,-3.7744,-3.7534,-3.7417,-3.7372,-3.7209,-3.7239,-3.7079,-3.7351,-3.737,-3.6982,-3.6979,-3.6977,-3.6976,-3.6974,-3.849,-3.8468,-3.8379,-3.8274,-3.8215,-3.7994,-3.7962,-3.7787,-3.7623,-3.7652,-3.7608,-3.7603,-3.7578,-3.7643,-3.7644,-3.7645,-3.7646,-3.7646,-3.7647,-3.8848,-3.8739,-3.8733,-3.8589,-3.8528,-3.8426,-3.8204,-3.8139,-3.8023,-3.7898,-3.7897,-3.7729,-3.741,-3.7335,-3.7662,-3.7659,-3.7657,-3.7656,-3.7655,-3.922,-3.9108,-3.9101,-3.904,-3.8857,-3.8811,-3.8588,-3.8472,-3.8393,-3.8384,-3.8207,-3.8,-3.7911,-3.7878,-3.7815,-3.8245,-3.8245,-3.8245,-3.8245,-3.9483,-3.9421,-3.9373,-3.9289,-3.9186,-3.8985,-3.8983,-3.8812,-3.8617,-3.8558,-3.8469,-3.837,-3.8344,-3.827,-3.8229,-3.8167,-3.8677,-3.8677,-3.8678,-3.9703,-3.9623,-3.9654,-3.9463,-3.9307,-3.9178,-3.917,-3.9083,-3.8838,-3.8692,-3.8507,-3.8489,-3.8326,-3.8283,-3.8134,-3.8073,-3.7956,0,0]},{"header":{"parameterUnit":"m.s-1","parameterCategory":1,"la1":30.2992,"la2":30.254,"lo1":-89.0895,"lo2":-89.0443,"dy":0.0025,"dx":0.0025,"nx":19,"ny":19,"refTime":"2026-05-02T03:00:00:Z","depth":0,"parameterNumber":3,"parameterNumberName":"V-component_of_WINDS"},"data":[0,0,0,-6.5423,-6.5423,-6.5363,-6.5362,-6.5369,-6.537,0,0,0,0,0,0,0,0,0,0,0,-6.5488,-6.549,-6.5423,-6.5423,-6.5363,-6.5362,-6.5369,-6.537,0,0,0,0,0,0,0,0,0,0,0,-6.5487,-6.5489,-6.5491,-6.5423,-6.5363,-6.5362,-6.5369,-6.5385,0,0,0,0,0,0,0,0,0,0,-6.543,-6.5534,-6.5489,-6.5491,-6.5423,-6.5363,-6.5362,-6.5385,-6.5384,-6.5431,0,-6.5482,0,-6.5427,-6.5375,-6.5376,0,0,0,-6.5389,-6.5535,-6.5476,-6.5492,-6.5423,-6.5363,-6.538,-6.5383,-6.5383,-6.5431,-6.5482,-6.548,-6.5427,-6.5376,-6.5376,-6.5758,-6.5761,0,0,-6.5392,-6.5503,-6.5477,-6.5478,-6.5489,-6.5383,-6.5379,-6.5382,-6.5446,-6.5481,-6.5479,-6.5427,-6.5377,-6.5377,-6.5754,-6.5758,0,0,0,-6.5425,-6.5508,-6.5446,-6.548,-6.5463,-6.5382,-6.5377,-6.5445,-6.5416,-6.5478,-6.5427,-6.5377,-6.5378,-6.575,-6.5756,-6.6032,0,0,0,-6.5425,-6.5526,-6.5449,-6.5517,-6.5465,-6.5453,-6.5443,-6.5416,-6.5412,-6.5427,-6.5377,-6.5379,-6.5746,-6.5753,-6.6016,-6.6144,0,0,0,-6.5476,-6.5531,-6.5538,-6.5523,-6.5501,-6.545,-6.5419,-6.5412,-6.5384,-6.5376,-6.5379,-6.5744,-6.5752,-6.6002,-6.612,-6.6279,0,0,0,-6.5563,-6.5784,-6.5545,-6.5772,-6.5502,-6.562,-6.5418,-6.5501,-6.5527,-6.5377,-6.5747,-6.5755,-6.5997,-6.6106,-6.6265,-6.6433,-6.6513,0,0,-6.5904,-6.5829,-6.5954,-6.5738,-6.5927,-6.5621,-6.5851,-6.577,-6.5669,-6.5735,-6.5742,-6.6021,-6.6119,-6.6276,-6.6921,-6.6986,0,0,0,-6.61,-6.6192,-6.6217,-6.6247,-6.6191,-6.6154,-6.6026,-6.5997,-6.6048,-6.5724,-6.6117,-6.6172,-6.6259,-6.6335,-6.639,-6.6459,-6.5794,-6.5793,-6.5793,-6.6742,-6.66,-6.6799,-6.6652,-6.6684,-6.6552,-6.6566,-6.6505,-6.6352,-6.6448,-6.6467,-6.6875,-6.6968,-6.7008,-6.7083,-6.6543,-6.6544,-6.6545,-6.6546,-6.7229,-6.7338,-6.7132,-6.725,-6.7102,-6.7201,-6.7086,-6.6975,-6.7049,-6.6848,-6.6918,-6.6713,-6.7083,-6.7141,-6.6565,-6.6562,-6.6559,-6.6557,-6.6556,-6.7634,-6.7661,-6.7622,-6.7653,-6.7695,-6.7539,-6.7621,-6.7481,-6.7352,-6.7421,-6.7428,-6.7423,-6.7403,-6.7434,-6.7436,-6.7437,-6.7438,-6.7439,-6.744,-6.807,-6.8017,-6.81,-6.8063,-6.8066,-6.8053,-6.7927,-6.7927,-6.7893,-6.7786,-6.7785,-6.7627,-6.7145,-6.7028,-6.7462,-6.7458,-6.7455,-6.7453,-6.7452,-6.8617,-6.8472,-6.8602,-6.8606,-6.8553,-6.8606,-6.8429,-6.8444,-6.8424,-6.8471,-6.8297,-6.7963,-6.7877,-6.7832,-6.7735,-6.8325,-6.8325,-6.8325,-6.8325,-6.896,-6.8903,-6.9006,-6.9022,-6.9022,-6.8877,-6.9035,-6.8943,-6.8824,-6.8805,-6.8699,-6.8558,-6.8518,-6.8455,-6.8397,-6.8304,-6.9026,-6.9026,-6.9027,-6.9289,-6.9227,-6.9385,-6.9265,-6.9215,-6.9177,-6.9322,-6.9354,-6.9189,-6.9053,-6.8788,-6.8758,-6.8527,-6.8459,-6.8317,-6.8229,-6.8055,0,0]}]]